Waarnemingen

Advertentie
Mijn weer
Haparanda A, Zweden (2197): temperatuur & dauwpunt: 18.01.2020 13:00:00 - 24.01.2020 13:00:00 (CET)Haparanda A, Zweden (2197): windsnelheid & windstoten: 18.01.2020 13:00:00 - 24.01.2020 13:00:00 (CET)Haparanda A, Zweden (2197): windrichting: 18.01.2020 13:00:00 - 24.01.2020 13:00:00 (CET)Haparanda A, Zweden (2197): luchtdruk: 18.01.2020 13:00:00 - 24.01.2020 13:00:00 (CET)Haparanda A, Zweden (2197): zicht: 18.01.2020 13:00:00 - 24.01.2020 13:00:00 (CET)Haparanda A, Zweden (2197): neerslag: 18.01.2020 13:00:00 - 24.01.2020 13:00:00 (CET)
Datum & Tijd tt [°C] td [°C] ff [km/u] ff [kn] fx [km/u] fx [kn] dd ppp [hPa] vv [km] rr [mm]
24.01.2020 13:00:00 - - - - - - - - - -
24.01.2020 12:00:00 -5,9 -6,8 8 4 14 8 WZW 989,0 50 0,0
24.01.2020 11:00:00 -5,8 -6,7 8 5 13 7 ZW 989,1 50 0,0
24.01.2020 10:00:00 -6,4 -7,3 5 3 16 9 Z 989,1 50 0,0
24.01.2020 09:00:00 -4,6 -5,7 5 3 22 12 W 989,1 41 0,0
24.01.2020 08:00:00 -3,9 -5,0 11 6 23 12 W 988,6 50 0,0
24.01.2020 07:00:00 -4,7 -5,4 8 4 16 9 WZW 988,4 50 0,0
24.01.2020 06:00:00 -3,8 -4,6 6 3 18 10 WZW 988,3 50 0,0
24.01.2020 05:00:00 -2,3 -3,0 8 4 17 9 W 988,3 50 0,0
24.01.2020 04:00:00 -2,9 -3,4 6 3 17 9 WNW 988,2 50 0,0
24.01.2020 03:00:00 -1,7 -2,3 8 5 21 11 W 988,3 50 0,0
24.01.2020 02:00:00 -1,3 -1,9 7 4 16 9 WNW 988,0 50 0,0
24.01.2020 01:00:00 -1,4 -1,8 4 2 19 10 WNW 988,0 50 0,0
24.01.2020 00:00:00 -0,9 -1,2 8 4 19 10 W 987,9 50 0,0
23.01.2020 23:00:00 -1,8 -2,1 5 3 16 8 W 988,2 50 0,0
23.01.2020 22:00:00 -1,1 -1,2 7 4 24 13 WNW 988,3 50 0,0
23.01.2020 21:00:00 -1,8 -2,1 4 2 18 10 ZZW 988,8 50 0,0
23.01.2020 20:00:00 -0,8 -0,9 7 4 18 10 ZZW 989,6 50 0,0
23.01.2020 19:00:00 -0,7 -0,8 10 5 21 11 ZZW 990,6 50 0,0
23.01.2020 18:00:00 -0,6 -0,7 8 5 19 10 ZW 992,1 50 0,0
23.01.2020 17:00:00 -0,2 -0,3 7 4 19 10 Z 992,7 18 0,0
23.01.2020 16:00:00 -0,4 -0,5 9 5 34 19 Z 994,5 3,9 0,8
23.01.2020 15:00:00 -1,0 -1,3 16 9 34 18 ZZO 995,6 1,0 1,4
23.01.2020 14:00:00 -0,9 -1,2 15 8 35 19 Z 998,5 1,0 1,1
23.01.2020 13:00:00 -1,0 -1,3 13 7 28 15 Z 1000,1 1,3 1,0
23.01.2020 12:00:00 -1,7 -2,1 12 6 26 14 Z 1002,6 1,1 0,6
23.01.2020 11:00:00 -4,8 -5,8 7 4 14 8 OZO 1004,6 50 0,0
23.01.2020 10:00:00 -8,4 -9,3 7 4 11 6 OZO 1006,5 50 0,0
23.01.2020 09:00:00 -10,5 -11,8 5 3 10 6 ZO 1007,6 50 0,0
23.01.2020 08:00:00 -11,7 -12,7 4 2 7 4 ZO 1008,6 50 0,0
23.01.2020 07:00:00 -11,5 -12,5 4 2 6 4 ZO 1009,8 50 0,0
23.01.2020 06:00:00 -10,6 -11,8 4 2 8 4 ZO 1010,3 50 0,0
23.01.2020 05:00:00 -10,2 -11,8 2 1 8 4 ZZW 1011,5 50 0,0
23.01.2020 04:00:00 -8,9 -10,5 4 2 9 5 NW 1011,8 50 0,0
23.01.2020 03:00:00 -7,5 -10,5 7 4 21 11 NNW 1012,9 50 0,0
23.01.2020 02:00:00 -7,9 -10,7 8 5 19 10 NW 1012,9 50 0,0
23.01.2020 01:00:00 -7,0 -10,2 11 6 21 11 WNW 1012,9 50 0,0
23.01.2020 00:00:00 -7,9 -10,3 8 5 16 8 WNW 1012,6 50 0,0
22.01.2020 23:00:00 -7,7 -10,1 8 4 16 9 WNW 1012,2 50 0,0
22.01.2020 22:00:00 -7,0 -9,6 6 4 - - W 1012,3 50 0,0
22.01.2020 21:00:00 -5,9 -8,6 6 3 17 9 W 1012,3 50 0,0
22.01.2020 20:00:00 -6,7 -9,1 4 2 18 10 NNW 1012,5 50 0,0
22.01.2020 19:00:00 -4,7 -8,6 9 5 17 9 WNW 1012,4 50 0,0
22.01.2020 18:00:00 -4,6 -8,4 8 5 - - WNW 1012,2 50 0,0
22.01.2020 17:00:00 -5,2 -8,3 9 5 19 10 WNW 1011,7 50 0,0
22.01.2020 16:00:00 -6,1 -8,5 7 4 18 10 WNW 1011,4 50 0,0
22.01.2020 15:00:00 -5,5 -7,9 7 4 17 9 NW 1010,7 50 0,0
22.01.2020 14:00:00 -5,3 -7,7 8 4 17 9 NW 1010,1 50 0,0
22.01.2020 13:00:00 -3,5 -7,3 11 6 26 14 NNW 1009,0 50 0,0
22.01.2020 12:00:00 -3,4 -6,4 9 5 21 12 NNW 1007,8 50 0,0
22.01.2020 11:00:00 -4,1 -6,6 8 5 22 12 WNW 1006,6 50 0,0
22.01.2020 10:00:00 -6,1 -7,5 5 3 13 7 W 1005,9 50 0,0
22.01.2020 09:00:00 -6,1 -8,1 7 4 18 10 NW 1004,6 50 0,0
22.01.2020 08:00:00 -4,8 -7,2 9 5 25 14 NNW 1003,0 50 0,0
22.01.2020 07:00:00 -4,5 -7,1 11 6 24 13 NNW 1001,2 50 0,0
22.01.2020 06:00:00 -3,6 -6,9 15 8 28 15 N 999,5 50 0,0
22.01.2020 05:00:00 -3,7 -7,5 12 7 24 13 NNW 997,7 50 0,0
22.01.2020 04:00:00 -3,6 -7,7 13 7 25 13 NNW 995,8 50 0,0
22.01.2020 03:00:00 -4,0 -7,9 11 6 26 14 NW 994,6 50 0,0
22.01.2020 02:00:00 -4,0 -7,9 10 6 29 16 WNW 993,8 50 0,0
22.01.2020 01:00:00 -3,2 -7,7 11 6 27 14 NW 993,4 50 0,0
22.01.2020 00:00:00 -3,1 -7,6 10 6 25 14 NW 993,1 50 0,0
21.01.2020 23:00:00 -2,4 -7,1 11 6 31 17 WNW 992,4 50 0,0
21.01.2020 22:00:00 -2,1 -6,8 12 7 35 19 NW 991,6 50 0,0
21.01.2020 21:00:00 -1,7 -7,0 13 7 34 18 WNW 991,4 50 0,0
21.01.2020 20:00:00 -1,1 -6,6 11 6 40 22 W 991,5 50 0,0
21.01.2020 19:00:00 -0,5 -5,9 14 7 42 23 WNW 991,5 50 0,0
21.01.2020 18:00:00 -0,4 -5,4 11 6 38 20 W 991,5 50 0,0
21.01.2020 17:00:00 -0,2 -6,0 14 8 39 21 W 992,0 50 0,0
21.01.2020 16:00:00 -0,3 -5,9 12 6 33 18 W 992,8 50 0,0
21.01.2020 15:00:00 0,0 -5,6 13 7 37 20 W 993,6 50 0,0
21.01.2020 14:00:00 0,3 -5,7 13 7 33 18 W 994,1 50 0,0
21.01.2020 13:00:00 0,8 -5,7 10 6 35 19 W 994,0 50 0,0
21.01.2020 12:00:00 0,7 -5,5 11 6 36 20 W 993,8 50 0,0
21.01.2020 11:00:00 0,9 -5,6 13 7 30 16 W 993,7 37 0,0
21.01.2020 10:00:00 0,8 -4,8 13 7 37 20 W 993,8 50 0,0
21.01.2020 09:00:00 1,2 -3,5 14 8 42 23 WNW 993,1 50 0,0
21.01.2020 08:00:00 2,4 -0,9 12 7 29 15 WNW 992,5 50 0,0
21.01.2020 07:00:00 1,0 -0,6 7 4 22 12 ZW 992,1 50 0,0
21.01.2020 06:00:00 2,0 0,7 7 4 18 10 W 992,0 50 0,0
21.01.2020 05:00:00 0,2 -0,5 5 3 17 9 WZW 992,0 50 0,0
21.01.2020 04:00:00 2,0 0,8 9 5 19 10 WNW 992,1 50 0,0
21.01.2020 03:00:00 2,4 1,1 10 5 24 13 W 991,5 50 0,0
21.01.2020 02:00:00 3,0 1,5 9 5 27 15 W 991,5 50 0,0
21.01.2020 01:00:00 3,0 2,0 9 5 29 16 WZW 990,6 50 0,0
21.01.2020 00:00:00 3,2 2,2 12 6 42 23 W 990,1 50 0,0
20.01.2020 23:00:00 3,9 2,7 19 10 41 22 WZW 989,9 50 0,0
20.01.2020 22:00:00 2,8 2,2 18 10 38 20 WZW 990,4 50 0,0
20.01.2020 21:00:00 2,6 2,2 16 9 38 21 ZW 991,4 50 0,1
20.01.2020 20:00:00 2,3 2,0 15 8 32 18 ZW 993,3 50 0,2
20.01.2020 19:00:00 1,9 1,6 14 7 29 16 ZZW 996,1 4,1 2,2
20.01.2020 18:00:00 1,6 1,2 14 8 32 17 ZW 998,5 7 0,6
20.01.2020 17:00:00 2,4 1,4 15 8 35 19 ZW 1000,0 21 0,3
20.01.2020 16:00:00 2,2 1,3 11 6 31 17 ZW 1001,0 48 0,0
20.01.2020 15:00:00 1,4 0,8 10 6 23 12 ZZW 1001,4 50 0,0
20.01.2020 14:00:00 1,5 0,8 10 5 34 18 ZW 1003,0 50 0,0
20.01.2020 13:00:00 0,7 0,1 10 5 24 13 ZW 1003,6 50 0,0
20.01.2020 12:00:00 0,9 0,2 14 8 35 19 WZW 1003,6 50 0,0
20.01.2020 11:00:00 0,8 0,4 16 9 34 18 WZW 1003,8 50 0,0
20.01.2020 10:00:00 0,4 0,1 11 6 30 16 ZW 1004,3 50 0,0
20.01.2020 09:00:00 0,2 0,1 16 9 32 17 ZW 1005,0 42 0,0
20.01.2020 08:00:00 0,3 0,2 16 9 33 18 ZZW 1006,1 26 0,4
20.01.2020 07:00:00 0,0 -0,1 14 8 32 18 ZZW 1007,4 0,4 2,3
20.01.2020 06:00:00 -0,5 -1,2 16 8 28 15 ZZW 1009,1 1,6 0,0
20.01.2020 05:00:00 -1,6 -2,2 9 5 20 11 ZZW 1011,3 50 0,0
20.01.2020 04:00:00 -2,0 -2,6 10 6 24 13 Z 1012,9 43 0,0
20.01.2020 03:00:00 -3,2 -3,9 11 6 21 11 ZZW 1014,9 50 0,0
20.01.2020 02:00:00 -6,9 -7,8 3 2 9 5 ZZO 1016,1 49 0,0
20.01.2020 01:00:00 -7,9 -9,0 4 2 9 5 ZZW 1017,1 50 0,0
20.01.2020 00:00:00 -6,5 -7,6 4 2 11 6 ZW 1017,7 50 0,0
19.01.2020 23:00:00 -5,9 -7,0 5 3 13 7 ZW 1018,5 50 0,0
19.01.2020 22:00:00 -5,6 -6,8 4 2 10 5 ZW 1018,4 50 0,0
19.01.2020 21:00:00 -5,6 -6,8 3 2 12 7 O 1017,8 50 0,0
19.01.2020 20:00:00 -5,5 -6,7 5 3 15 8 NW 1019,0 50 0,0
19.01.2020 19:00:00 -5,4 -6,8 8 5 19 10 NNW 1018,6 50 0,0
19.01.2020 18:00:00 -5,7 -7,2 8 4 16 9 N 1016,1 50 0,0
19.01.2020 17:00:00 -5,4 -6,8 8 4 21 12 NNW 1017,1 50 0,0
19.01.2020 16:00:00 -5,4 -6,8 9 5 24 13 N 1016,2 50 0,0
19.01.2020 15:00:00 -5,5 -6,9 10 5 19 10 NNW 1015,5 50 0,0
19.01.2020 14:00:00 -5,3 -6,7 10 5 22 12 NNW 1013,8 50 0,0
19.01.2020 13:00:00 -4,7 -6,1 11 6 - - NNW 1011,8 50 0,0
19.01.2020 12:00:00 -3,9 -5,0 11 6 24 13 N 1011,0 21 0,0
19.01.2020 11:00:00 -3,6 -4,7 14 7 24 13 N 1009,6 6 0,2
19.01.2020 10:00:00 -3,1 -4,2 13 7 26 14 N 1008,7 3,8 0,0
19.01.2020 09:00:00 -3,0 -4,0 12 7 23 13 N 1007,3 30 0,0
19.01.2020 08:00:00 -2,8 -3,6 13 7 24 13 N 1006,2 13 0,0
19.01.2020 07:00:00 -2,6 -3,3 13 7 24 13 N 1005,0 6 0,1
19.01.2020 06:00:00 -2,6 -3,3 13 7 22 12 N 1004,0 6 0,2
19.01.2020 05:00:00 -2,5 -3,0 10 6 19 11 N 1003,4 3,6 0,4
19.01.2020 04:00:00 -2,4 -3,0 9 5 16 9 NNO 1003,0 2,3 0,5
19.01.2020 03:00:00 -2,5 -3,0 8 4 - - NNO 1002,6 3,2 0,3
19.01.2020 02:00:00 -2,5 -3,0 8 4 18 10 NNO 1002,4 2,4 0,6
19.01.2020 01:00:00 -2,6 -3,1 9 5 18 10 NNO 1002,2 1,9 0,9
19.01.2020 00:00:00 -2,7 -3,2 8 5 19 10 NNO 1002,2 1,0 1,3
18.01.2020 23:00:00 -2,7 -3,2 7 4 16 8 NNO 1002,1 1,5 0,9
18.01.2020 22:00:00 -2,8 -3,3 9 5 19 10 NO 1001,8 1,1 1,4
18.01.2020 21:00:00 -3,0 -3,7 9 5 - - NO 1001,9 1,5 0,7
18.01.2020 20:00:00 -3,1 -3,8 10 6 19 11 NO 1002,2 1,4 1,1
18.01.2020 19:00:00 -3,1 -3,8 10 6 20 11 NO 1002,3 1,6 1,0
18.01.2020 18:00:00 -3,0 -3,7 10 6 19 10 NO 1002,2 1,0 1,2
18.01.2020 17:00:00 -3,0 -3,7 9 5 19 10 NO 1002,5 1,5 1,1
18.01.2020 16:00:00 -3,1 -3,8 9 5 18 10 NO 1002,7 1,1 1,3
18.01.2020 15:00:00 -3,0 -3,7 10 5 19 11 NO 1003,0 1,2 1,0
18.01.2020 14:00:00 -2,9 -3,6 10 5 18 10 NO 1003,4 1,6 1,0
18.01.2020 13:00:00 -3,0 -3,7 10 6 20 11 NO 1003,8 1,5 1,1

tt = temperatuur
td = dauwpunt
ff = windsnelheid
fx = windstoten
dd = windrichting
ppp = luchtdruk
vv = zicht
rr = neerslag

Weerstations in de omgeving